Temp_Advection
nan nan nan nan nan nan nan nan nan nan nan nan nan nan nan nan nan nan nan nan nan nan nan nan nan nan nan nan nan nan nan nan
nan -0 -0 -0 -0 -0 -0 -0 -0 -0 -1 -0 -1 -1 -1 -0 0 -0 -1 -1 -0 1 0 -0 -1 0 1 1 0 1 1 nan
nan -0 -0 -0 -0 -0 -0 -0 -0 -0 -1 -1 -1 -1 -1 -1 -1 -1 -0 -1 -1 -0 0 -0 -0 0 1 1 1 1 1 nan
nan -0 -0 -0 -0 -0 -0 -0 -0 -0 0 0 0 -1 -1 -1 -1 -1 -2 -1 -0 -0 -0 -1 -0 0 1 1 1 1 2 nan
nan -0 -0 -0 -0 -0 -0 -0 -0 -1 -1 -1 -0 -0 -1 -1 -1 -1 -1 -2 -2 -1 -0 0 0 -0 0 1 1 0 2 nan
nan -0 -0 -0 -0 -0 -0 -0 -1 -1 -1 -1 -1 -1 -1 -1 -1 -1 -2 -1 -1 -1 -2 -1 -0 0 0 -0 -0 1 1 nan
nan -0 -0 -0 -0 -0 -0 -0 -0 -1 -1 -1 -1 -1 -1 -1 -1 -1 -1 -1 -1 -0 -0 -1 -1 -1 -0 0 0 -1 0 nan
nan -0 -0 -0 -0 -0 -0 0 -0 -0 -0 -1 -1 -1 -1 -1 -1 -1 -2 -1 -1 -1 0 -0 -1 -1 -1 -0 0 0 -0 nan
nan -0 -0 -0 -0 0 0 0 0 0 0 -0 -0 -1 -0 -1 -1 -1 -1 -1 -2 -1 -0 -0 0 -0 -1 -1 -0 -0 -0 nan
nan -0 -0 0 -0 0 0 0 0 -0 -0 0 0 0 -1 -1 -1 -1 -2 -1 -1 -1 -0 -0 -0 -0 -0 -0 -0 -0 -0 nan
nan -0 0 0 0 0 0 -0 -0 -0 -0 -0 0 1 -0 -1 -1 -1 -1 -1 -0 0 -0 -1 -0 -0 -0 -1 -0 0 -0 nan
nan 0 0 0 0 0 -0 -0 -0 -0 -0 0 0 1 0 -1 -1 -0 -0 -1 -1 -0 0 0 -0 -1 -1 -1 -0 0 0 nan
nan 0 0 -0 -0 -0 -0 -0 -1 -0 0 -1 -0 0 0 0 0 -0 -0 -0 -0 -0 0 0 -0 -1 -1 -1 -1 -0 -0 nan
nan 0 0 -0 0 -0 -0 -0 -1 -1 -0 -0 -0 -0 -0 -0 -0 -0 -0 -1 -1 -1 -1 -0 -0 -1 -1 -1 -1 -1 -0 nan
nan -0 -0 0 0 -0 -0 -0 -0 -1 -1 -0 -0 -0 -0 -0 -1 -0 -0 -1 -1 -1 -1 -1 -1 -0 -1 -1 -1 -1 -1 nan
nan -0 -0 -0 -0 0 0 0 0 -0 -1 -0 -0 -0 -0 -0 -0 -0 -0 -0 -1 -1 -0 -0 -0 -0 0 -0 -0 -0 -0 nan
nan -0 0 0 0 -0 0 1 1 0 -1 -1 -1 -0 0 -0 -0 -0 -0 -0 -0 -1 -1 -1 -0 0 0 -0 -0 -0 -1 nan
nan -0 -0 0 0 0 -0 0 1 0 -0 -1 -1 -1 0 0 -0 -0 -0 -0 -0 -0 -1 -1 -1 -1 -0 -0 -0 -0 -1 nan
nan nan nan nan nan nan nan nan nan nan nan nan nan nan nan nan nan nan nan nan nan nan nan nan nan nan nan nan nan nan nan nan
Wind_Speed
9 10 9 11 11 13 14 16 16 13 10 15 12 11 14 18 21 21 27 29 30 34 36 38 43 45 50 48 50 49 51 49
8 8 9 11 13 14 17 17 19 21 19 17 18 20 21 17 19 25 29 31 33 33 32 37 44 47 46 49 51 48 54 52
7 7 8 10 13 15 16 16 17 18 21 17 18 20 20 23 24 25 25 24 26 34 34 33 38 49 48 52 50 48 51 56
6 5 7 9 12 14 16 18 19 18 21 22 24 27 28 21 19 26 31 30 26 25 28 34 30 39 47 59 52 60 55 54
5 5 7 10 12 16 18 21 22 23 26 28 30 30 30 30 32 28 27 32 32 29 27 27 25 23 38 30 42 46 57 53
5 6 9 11 12 14 15 18 16 20 21 24 28 32 34 36 33 33 32 26 29 31 30 29 27 26 22 25 31 32 37 46
5 7 10 11 14 17 18 18 20 23 24 24 24 28 32 35 37 38 36 31 29 28 26 26 29 24 25 27 20 24 35 40
6 9 11 14 16 19 20 21 25 24 27 29 32 29 32 36 36 34 35 33 28 24 21 20 23 22 22 25 25 28 23 26
8 11 13 14 17 19 21 23 23 26 27 29 34 39 36 36 35 36 37 33 34 33 27 24 21 21 21 22 26 30 32 28
10 12 14 16 18 21 19 24 28 25 28 32 43 40 38 42 42 36 39 35 32 30 26 24 26 25 20 20 24 29 27 25
11 11 16 17 20 21 22 23 21 25 33 41 47 47 41 41 45 33 27 25 18 20 28 30 26 25 26 22 19 26 29 26
11 14 17 18 19 20 21 22 27 35 43 47 43 39 36 34 20 19 11 18 18 20 22 22 23 26 25 24 26 23 25 27
12 15 16 18 21 24 18 25 30 36 41 36 30 19 13 10 13 15 14 14 15 16 19 21 24 24 23 24 24 25 26 24
12 14 16 18 23 18 18 21 30 32 33 24 14 15 15 9 10 13 14 15 16 17 19 21 20 20 20 20 19 19 26 27
15 16 17 20 19 17 19 22 31 32 29 22 16 13 8 12 18 19 17 19 19 19 19 20 20 19 18 17 17 18 21 22
16 19 21 20 20 18 21 25 28 29 26 19 13 9 8 10 16 18 20 22 22 23 21 20 17 14 13 19 21 23 24 26
17 19 19 19 19 18 25 25 27 28 25 19 13 13 12 10 14 18 18 20 21 22 21 19 19 17 16 20 19 21 21 21
17 19 17 17 16 18 21 23 25 25 21 19 17 17 17 15 18 19 21 22 22 22 22 23 20 18 18 18 20 22 23 23
16 15 16 15 17 15 17 21 20 19 19 18 18 16 15 16 17 18 19 22 23 24 25 24 23 22 21 21 22 22 22 21
Wind_Direction
72 52 43 27 21 30 19 7 8 13 9 12 346 321 293 291 286 280 272 271 269 274 268 258 249 249 249 249 240 236 242 237
74 45 30 26 18 19 15 5 9 4 351 359 342 338 331 315 299 289 288 282 273 270 270 265 258 251 253 253 241 240 236 232
93 58 27 14 9 6 9 3 2 5 341 352 337 330 329 324 321 307 305 299 290 277 271 273 262 255 253 254 242 233 232 230
97 49 21 6 2 359 358 352 356 352 335 333 328 322 322 319 308 300 305 300 299 291 281 265 265 257 245 253 237 239 224 220
93 48 10 2 358 349 344 340 344 332 327 319 316 318 318 310 307 300 305 303 303 299 295 283 273 260 246 253 240 243 227 222
64 16 357 346 346 344 344 331 330 318 319 319 317 315 310 307 304 309 303 293 298 299 297 292 293 300 280 253 252 247 230 230
27 348 340 340 337 339 333 329 325 328 327 321 321 317 313 310 312 310 302 303 294 286 294 297 296 284 277 282 290 268 238 240
345 338 347 340 334 332 329 323 323 322 322 321 314 314 309 300 299 303 302 297 289 284 283 291 295 295 299 287 285 282 285 260
340 344 343 332 326 325 325 324 317 316 316 314 312 308 303 300 302 299 288 284 290 288 283 280 273 285 292 294 292 271 266 277
349 334 324 322 323 322 321 317 316 325 320 311 311 310 305 298 302 298 288 281 283 282 280 286 277 281 279 270 274 278 273 264
325 324 319 321 320 324 323 327 328 326 311 310 307 301 298 296 298 296 298 295 284 288 301 287 285 282 271 273 272 277 274 263
330 322 321 322 325 328 330 333 333 316 317 313 317 313 301 298 310 324 303 277 291 291 282 285 285 282 285 280 269 269 279 274
325 324 325 328 331 326 331 328 317 318 322 329 331 339 359 7 350 321 317 322 319 316 303 299 290 297 301 292 287 278 272 274
325 324 326 332 330 326 329 332 316 327 339 343 348 353 7 7 315 325 325 327 329 329 329 330 324 320 315 311 306 296 277 272
324 328 330 331 330 340 328 325 318 324 341 331 328 308 325 345 341 338 342 336 338 333 334 330 329 330 325 322 302 293 288 273
332 331 327 326 330 325 321 322 316 323 326 337 325 333 339 351 334 326 331 331 331 330 328 330 327 323 307 291 292 295 294 280
329 323 320 324 326 319 322 313 314 319 320 325 329 321 320 324 314 315 312 313 317 327 328 329 330 326 300 305 314 309 306 306
318 318 319 315 312 314 310 310 311 316 321 325 320 310 305 304 307 310 316 321 323 324 322 324 324 328 329 320 319 319 323 320
314 312 309 303 307 302 303 308 315 310 314 317 319 314 319 322 320 322 324 323 322 322 323 323 321 321 328 325 321 319 317 314
Height
1502 1503 1503 1503 1501 1499 1497 1494 1491 1489 1488 1487 1486 1485 1484 1483 1482 1481 1480 1479 1479 1479 1479 1479 1480 1480 1478 1481 1483 1485 1485 1486
1500 1503 1503 1503 1502 1500 1498 1496 1493 1490 1486 1484 1483 1483 1482 1481 1479 1478 1476 1475 1472 1471 1472 1471 1469 1469 1471 1472 1472 1475 1483 1482
1499 1501 1503 1504 1502 1500 1499 1496 1494 1492 1488 1486 1484 1482 1480 1477 1476 1474 1472 1470 1469 1467 1462 1464 1462 1464 1461 1461 1460 1463 1469 1471
1497 1499 1501 1503 1501 1500 1498 1496 1495 1493 1488 1485 1481 1479 1475 1475 1472 1469 1467 1465 1463 1461 1459 1457 1455 1453 1451 1452 1448 1450 1447 1454
1495 1499 1501 1501 1500 1498 1496 1494 1491 1490 1486 1482 1479 1476 1472 1469 1467 1466 1463 1461 1459 1455 1453 1450 1448 1446 1445 1444 1442 1431 1428 1437
1495 1498 1499 1500 1498 1496 1495 1494 1491 1488 1486 1482 1477 1472 1469 1464 1461 1458 1456 1455 1454 1451 1448 1444 1445 1440 1441 1435 1443 1434 1437 1436
1494 1495 1496 1496 1495 1494 1493 1493 1490 1487 1483 1480 1476 1473 1466 1459 1455 1453 1451 1449 1448 1446 1443 1439 1437 1438 1437 1432 1429 1433 1432 1434
1493 1494 1493 1493 1492 1491 1490 1488 1486 1484 1479 1474 1470 1467 1462 1457 1454 1449 1446 1443 1441 1440 1437 1434 1433 1431 1429 1426 1425 1429 1427 1424
1492 1493 1493 1492 1492 1490 1487 1485 1483 1479 1475 1471 1467 1462 1457 1451 1447 1443 1438 1436 1435 1434 1431 1429 1428 1427 1423 1423 1426 1429 1426 1419
1489 1491 1491 1490 1488 1486 1483 1480 1478 1476 1472 1465 1460 1456 1451 1444 1439 1435 1430 1428 1428 1427 1426 1424 1423 1422 1419 1418 1421 1419 1417 1415
1489 1488 1489 1488 1485 1482 1479 1477 1473 1471 1465 1460 1454 1447 1442 1436 1430 1427 1426 1424 1422 1422 1420 1419 1416 1417 1413 1414 1412 1413 1413 1412
1485 1485 1484 1482 1480 1478 1476 1471 1468 1464 1460 1453 1442 1434 1430 1427 1424 1422 1422 1421 1418 1417 1415 1414 1412 1411 1408 1407 1406 1407 1408 1409
1481 1481 1480 1478 1476 1475 1472 1468 1463 1458 1454 1444 1437 1429 1426 1425 1425 1423 1422 1419 1416 1414 1411 1409 1407 1405 1402 1402 1400 1400 1401 1405
1477 1477 1476 1474 1472 1468 1467 1465 1459 1456 1449 1442 1437 1432 1428 1426 1424 1422 1420 1417 1415 1412 1409 1405 1402 1398 1397 1396 1393 1393 1396 1397
1473 1472 1471 1470 1467 1465 1462 1460 1456 1453 1449 1442 1436 1431 1428 1425 1424 1422 1420 1417 1414 1411 1407 1403 1399 1396 1395 1394 1391 1391 1391 1388
1468 1468 1467 1466 1463 1461 1459 1457 1454 1450 1447 1441 1436 1430 1426 1424 1425 1423 1420 1416 1412 1407 1404 1402 1399 1398 1396 1394 1391 1388 1384 1388
1465 1465 1464 1464 1461 1458 1455 1453 1452 1448 1443 1439 1434 1430 1427 1423 1422 1420 1417 1413 1409 1405 1402 1399 1396 1394 1393 1390 1386 1386 1384 1378
1464 1462 1460 1459 1458 1453 1451 1448 1446 1444 1439 1435 1431 1427 1424 1421 1419 1416 1412 1409 1405 1402 1399 1395 1392 1390 1388 1384 1381 1378 1372 1371
1460 1459 1458 1455 1453 1452 1449 1444 1441 1440 1436 1431 1427 1423 1419 1418 1415 1412 1408 1405 1402 1399 1395 1392 1389 1387 1384 1381 1378 1375 1373 1373